Location: Unspecified
(0.0000°N, 0.0000°E)
Time: 22:35:27
(UTC+00:00)

USA 72 - Pass Details

Date: 20 October 2024
Orbit: 2592 x 11654 km, 63.4° (Epoch: 10 November)

Event Time Altitude Azimuth Distance (km) Brightness Sun altitude
Rises 18:27:00 0° 320° (NW) 15,165 11.5 -10.4°
Reaches altitude 10° 18:45:39 10° 307° (NW) 12,442 11.2 -15.0°
Maximum altitude 19:15:27 23° 261° (W) 7,649 10.4 -22.3°
Drops below altitude 10° 19:31:44 10° 210° (SSW) 6,621 9.8 -26.3°
Sets 19:37:30 0° 192° (SSW) 7,024 9.7 -27.7°
